Time,TemperatureF,DewpointF,PressureIn,WindDirection,WindDirectionDegrees,WindSpeedMPH,WindSpeedGustMPH,Humidity,HourlyPrecipIn,Conditions,Clouds,dailyrainin,SoftwareType,DateUTC
2013-09-12 00:13:00,76.4,68.0,29.99,SW,221,0.0,4.0,75,0.00,,,0.00,weatherlink.com 1.10,2013-09-12 05:13:00,
2013-09-12 00:28:00,76.0,68.0,29.98,WSW,242,1.0,4.0,76,0.00,,,0.00,weatherlink.com 1.10,2013-09-12 05:28:00,
2013-09-12 00:43:00,75.8,67.0,29.98,WSW,237,2.0,3.0,75,0.00,,,0.00,weatherlink.com 1.10,2013-09-12 05:43:00,
2013-09-12 00:58:00,75.7,67.0,29.99,WSW,237,0.0,2.0,75,0.00,,,0.00,weatherlink.com 1.10,2013-09-12 05:58:00,
2013-09-12 01:13:00,75.1,67.0,29.98,WSW,237,0.0,1.0,77,0.00,,,0.00,weatherlink.com 1.10,2013-09-12 06:13:00,
2013-09-12 01:28:00,74.5,67.0,29.98,WSW,237,1.0,1.0,78,0.00,,,0.00,weatherlink.com 1.10,2013-09-12 06:28:00,
2013-09-12 01:43:00,74.3,67.0,29.98,WSW,237,0.0,1.0,79,0.00,,,0.00,weatherlink.com 1.10,2013-09-12 06:43:00,
2013-09-12 01:58:00,74.3,67.0,29.98,WSW,237,0.0,1.0,79,0.00,,,0.00,weatherlink.com 1.10,2013-09-12 06:58:00,
2013-09-12 02:13:00,74.7,67.0,29.98,WSW,237,1.0,3.0,78,0.00,,,0.00,weatherlink.com 1.10,2013-09-12 07:13:00,
2013-09-12 02:28:00,74.9,68.0,29.98,NNE,19,2.0,7.0,78,0.00,,,0.00,weatherlink.com 1.10,2013-09-12 07:28:00,
2013-09-12 02:43:00,74.4,68.0,29.98,North,5,0.0,4.0,80,0.00,,,0.00,weatherlink.com 1.10,2013-09-12 07:43:00,
2013-09-12 02:58:00,74.0,68.0,29.99,NNE,13,3.0,4.0,80,0.00,,,0.00,weatherlink.com 1.10,2013-09-12 07:58:00,
2013-09-12 03:13:00,73.8,68.0,29.99,NNE,13,0.0,2.0,81,0.00,,,0.00,weatherlink.com 1.10,2013-09-12 08:13:00,
2013-09-12 03:28:00,73.4,67.0,29.99,NNW,339,3.0,5.0,81,0.00,,,0.00,weatherlink.com 1.10,2013-09-12 08:28:00,
2013-09-12 03:43:00,73.4,67.0,29.99,NNW,340,1.0,4.0,80,0.00,,,0.00,weatherlink.com 1.10,2013-09-12 08:43:00,
2013-09-12 03:58:00,73.6,67.0,30.00,NW,325,1.0,6.0,80,0.00,,,0.00,weatherlink.com 1.10,2013-09-12 08:58:00,
2013-09-12 04:13:00,73.6,67.0,29.99,NNW,343,2.0,7.0,80,0.00,,,0.00,weatherlink.com 1.10,2013-09-12 09:13:00,
2013-09-12 04:28:00,73.6,67.0,29.99,NNE,26,1.0,4.0,80,0.00,,,0.00,weatherlink.com 1.10,2013-09-12 09:28:00,
2013-09-12 04:44:00,73.3,67.0,29.99,NNE,26,3.0,5.0,81,0.00,,,0.00,weatherlink.com 1.10,2013-09-12 09:44:00,
2013-09-12 04:59:00,73.1,67.0,30.00,NNE,26,4.0,4.0,82,0.00,,,0.00,weatherlink.com 1.10,2013-09-12 09:59:00,
2013-09-12 05:14:00,73.0,68.0,30.01,NNE,28,4.0,10.0,83,0.00,,,0.00,weatherlink.com 1.10,2013-09-12 10:14:00,
2013-09-12 05:29:00,72.7,68.0,30.01,North,360,6.0,11.0,85,0.00,,,0.00,weatherlink.com 1.10,2013-09-12 10:29:00,
2013-09-12 05:44:00,72.3,68.0,30.02,NNE,29,3.0,8.0,86,0.00,,,0.00,weatherlink.com 1.10,2013-09-12 10:44:00,
2013-09-12 05:59:00,71.8,68.0,30.02,NNE,15,7.0,7.0,87,0.00,,,0.00,weatherlink.com 1.10,2013-09-12 10:59:00,
2013-09-12 06:14:00,71.5,68.0,30.02,NNW,333,5.0,8.0,88,0.00,,,0.00,weatherlink.com 1.10,2013-09-12 11:14:00,
2013-09-12 06:29:00,71.3,68.0,30.03,North,360,1.0,6.0,89,0.00,,,0.00,weatherlink.com 1.10,2013-09-12 11:29:00,
2013-09-12 06:44:00,71.0,68.0,30.03,North,5,2.0,5.0,89,0.00,,,0.00,weatherlink.com 1.10,2013-09-12 11:44:00,
2013-09-12 06:59:00,70.8,68.0,30.03,NNE,19,0.0,4.0,90,0.00,,,0.00,weatherlink.com 1.10,2013-09-12 11:59:00,
2013-09-12 07:14:00,70.6,68.0,30.03,NE,34,5.0,6.0,91,0.00,,,0.00,weatherlink.com 1.10,2013-09-12 12:14:00,
2013-09-12 07:29:00,70.7,68.0,30.03,NE,49,3.0,6.0,92,0.00,,,0.00,weatherlink.com 1.10,2013-09-12 12:29:00,
2013-09-12 07:44:00,70.9,69.0,30.03,NE,49,3.0,6.0,92,0.00,,,0.00,weatherlink.com 1.10,2013-09-12 12:44:00,
2013-09-12 07:59:00,71.0,69.0,30.03,NE,51,1.0,6.0,92,0.00,,,0.00,weatherlink.com 1.10,2013-09-12 12:59:00,
2013-09-12 08:14:00,71.2,69.0,30.03,NE,44,3.0,5.0,91,0.00,,,0.00,weatherlink.com 1.10,2013-09-12 13:14:00,
2013-09-12 08:29:00,71.3,69.0,30.03,ENE,58,2.0,7.0,91,0.00,,,0.00,weatherlink.com 1.10,2013-09-12 13:29:00,
2013-09-12 08:44:00,71.7,68.0,30.03,ENE,61,3.0,7.0,89,0.00,,,0.00,weatherlink.com 1.10,2013-09-12 13:44:00,
2013-09-12 08:59:00,72.6,69.0,30.05,ENE,67,5.0,10.0,87,0.00,,,0.00,weatherlink.com 1.10,2013-09-12 13:59:00,
2013-09-12 09:14:00,72.2,68.0,30.04,NNE,30,4.0,10.0,85,0.00,,,0.00,weatherlink.com 1.10,2013-09-12 14:14:00,
2013-09-12 09:29:00,72.8,68.0,30.04,ESE,105,5.0,9.0,85,0.00,,,0.00,weatherlink.com 1.10,2013-09-12 14:29:00,
2013-09-12 09:44:00,73.3,68.0,30.05,ESE,108,3.0,7.0,83,0.00,,,0.00,weatherlink.com 1.10,2013-09-12 14:44:00,
2013-09-12 09:59:00,75.4,69.0,30.05,NE,42,6.0,7.0,79,0.00,,,0.00,weatherlink.com 1.10,2013-09-12 14:59:00,
2013-09-12 10:14:00,75.0,68.0,30.05,NE,36,1.0,4.0,79,0.00,,,0.00,weatherlink.com 1.10,2013-09-12 15:14:00,
2013-09-12 10:29:00,74.2,68.0,30.05,East,92,0.0,5.0,80,0.00,,,0.00,weatherlink.com 1.10,2013-09-12 15:29:00,
2013-09-12 10:44:00,74.9,68.0,30.05,East,92,0.0,1.0,80,0.00,,,0.00,weatherlink.com 1.10,2013-09-12 15:44:00,
2013-09-12 10:59:00,76.3,69.0,30.05,North,5,0.0,2.0,78,0.00,,,0.00,weatherlink.com 1.10,2013-09-12 15:59:00,
2013-09-12 11:14:00,76.7,69.0,30.05,North,355,0.0,3.0,76,0.00,,,0.00,weatherlink.com 1.10,2013-09-12 16:14:00,
2013-09-12 11:29:00,77.2,68.0,30.04,NNE,15,3.0,4.0,74,0.00,,,0.00,weatherlink.com 1.10,2013-09-12 16:29:00,
2013-09-12 11:44:00,77.2,68.0,30.04,NE,41,0.0,4.0,74,0.00,,,0.00,weatherlink.com 1.10,2013-09-12 16:44:00,
2013-09-12 11:59:00,78.0,70.0,30.05,NNW,347,4.0,7.0,75,0.00,,,0.00,weatherlink.com 1.10,2013-09-12 16:59:00,
2013-09-12 12:14:00,78.2,69.0,30.05,NNW,329,1.0,6.0,73,0.00,,,0.00,weatherlink.com 1.10,2013-09-12 17:14:00,
2013-09-12 12:29:00,77.9,69.0,30.04,North,350,3.0,6.0,73,0.00,,,0.00,weatherlink.com 1.10,2013-09-12 17:29:00,
2013-09-12 12:44:00,78.0,70.0,30.05,NW,306,4.0,8.0,76,0.00,,,0.00,weatherlink.com 1.10,2013-09-12 17:44:00,
2013-09-12 13:00:00,79.3,69.0,30.05,NW,311,4.0,7.0,70,0.00,,,0.00,weatherlink.com 1.10,2013-09-12 18:00:00,
2013-09-12 13:15:00,79.4,69.0,30.04,NNE,17,6.0,8.0,70,0.00,,,0.00,weatherlink.com 1.10,2013-09-12 18:15:00,
2013-09-12 13:30:00,79.9,69.0,30.04,NW,310,3.0,8.0,70,0.00,,,0.00,weatherlink.com 1.10,2013-09-12 18:30:00,
2013-09-12 13:45:00,81.0,69.0,30.04,NW,311,4.0,9.0,66,0.00,,,0.00,weatherlink.com 1.10,2013-09-12 18:45:00,
2013-09-12 14:00:00,82.1,67.0,30.03,NW,313,5.0,6.0,60,0.00,,,0.00,weatherlink.com 1.10,2013-09-12 19:00:00,
2013-09-12 14:15:00,82.7,67.0,30.03,North,355,7.0,11.0,59,0.00,,,0.00,weatherlink.com 1.10,2013-09-12 19:15:00,
2013-09-12 14:30:00,83.3,65.0,30.02,NNW,333,1.0,10.0,54,0.00,,,0.00,weatherlink.com 1.10,2013-09-12 19:30:00,
2013-09-12 14:45:00,84.5,67.0,30.01,NNW,346,3.0,8.0,56,0.00,,,0.00,weatherlink.com 1.10,2013-09-12 19:45:00,
2013-09-12 15:00:00,84.8,66.0,30.00,NNW,346,0.0,10.0,53,0.00,,,0.00,weatherlink.com 1.10,2013-09-12 20:00:00,
2013-09-12 15:15:00,85.9,66.0,30.00,NNW,336,1.0,13.0,52,0.00,,,0.00,weatherlink.com 1.10,2013-09-12 20:15:00,
2013-09-12 15:30:00,85.9,67.0,29.99,West,278,3.0,8.0,54,0.00,,,0.00,weatherlink.com 1.10,2013-09-12 20:30:00,
2013-09-12 15:45:00,86.4,66.0,29.99,NNW,347,6.0,10.0,50,0.00,,,0.00,weatherlink.com 1.10,2013-09-12 20:45:00,
2013-09-12 16:00:00,87.0,65.0,29.98,NNW,334,4.0,8.0,48,0.00,,,0.00,weatherlink.com 1.10,2013-09-12 21:00:00,
2013-09-12 16:15:00,86.4,64.0,29.98,NNW,348,2.0,8.0,48,0.00,,,0.00,weatherlink.com 1.10,2013-09-12 21:15:00,
2013-09-12 16:30:00,87.1,64.0,29.98,NE,39,3.0,11.0,47,0.00,,,0.00,weatherlink.com 1.10,2013-09-12 21:30:00,
2013-09-12 16:45:00,87.8,64.0,29.97,NNW,346,7.0,9.0,45,0.00,,,0.00,weatherlink.com 1.10,2013-09-12 21:45:00,
2013-09-12 17:00:00,86.9,63.0,29.96,NNW,338,5.0,11.0,45,0.00,,,0.00,weatherlink.com 1.10,2013-09-12 22:00:00,
2013-09-12 17:15:00,86.8,64.0,29.96,NNW,347,1.0,12.0,46,0.00,,,0.00,weatherlink.com 1.10,2013-09-12 22:15:00,
2013-09-12 17:30:00,86.9,64.0,29.96,WNW,290,10.0,13.0,46,0.00,,,0.00,weatherlink.com 1.10,2013-09-12 22:30:00,
2013-09-12 17:45:00,84.6,64.0,29.96,NW,320,6.0,14.0,50,0.00,,,0.00,weatherlink.com 1.10,2013-09-12 22:45:00,
2013-09-12 18:00:00,83.7,64.0,29.96,NNW,340,6.0,10.0,52,0.00,,,0.00,weatherlink.com 1.10,2013-09-12 23:00:00,
2013-09-12 18:15:00,83.2,64.0,29.96,NNW,329,3.0,12.0,52,0.00,,,0.00,weatherlink.com 1.10,2013-09-12 23:15:00,
2013-09-12 18:30:00,82.7,63.0,29.96,North,5,3.0,11.0,52,0.00,,,0.00,weatherlink.com 1.10,2013-09-12 23:30:00,
2013-09-12 18:45:00,81.6,62.0,29.97,North,5,7.0,11.0,51,0.00,,,0.00,weatherlink.com 1.10,2013-09-12 23:45:00,
2013-09-12 19:00:00,80.5,60.0,29.97,North,5,5.0,13.0,50,0.00,,,0.00,weatherlink.com 1.10,2013-09-13 00:00:00,
2013-09-12 19:15:00,79.2,58.0,29.98,NE,34,4.0,9.0,49,0.00,,,0.00,weatherlink.com 1.10,2013-09-13 00:15:00,
2013-09-12 19:30:00,77.9,58.0,29.99,NW,315,7.0,9.0,51,0.00,,,0.00,weatherlink.com 1.10,2013-09-13 00:30:00,
2013-09-12 19:45:00,76.8,55.0,30.00,NNW,346,6.0,9.0,47,0.00,,,0.00,weatherlink.com 1.10,2013-09-13 00:45:00,
2013-09-12 20:00:00,76.0,54.0,30.00,North,355,5.0,9.0,46,0.00,,,0.00,weatherlink.com 1.10,2013-09-13 01:00:00,
2013-09-12 20:15:00,74.9,53.0,30.01,NNW,339,5.0,7.0,46,0.00,,,0.00,weatherlink.com 1.10,2013-09-13 01:15:00,
2013-09-12 20:30:00,73.9,52.0,30.02,NNW,335,4.0,8.0,47,0.00,,,0.00,weatherlink.com 1.10,2013-09-13 01:30:00,
2013-09-12 20:45:00,73.0,51.0,30.03,North,5,0.0,7.0,47,0.00,,,0.00,weatherlink.com 1.10,2013-09-13 01:45:00,
2013-09-12 21:00:00,72.2,51.0,30.03,North,351,3.0,8.0,47,0.00,,,0.00,weatherlink.com 1.10,2013-09-13 02:00:00,
2013-09-12 21:15:00,71.5,50.0,30.04,NNW,344,3.0,9.0,47,0.00,,,0.00,weatherlink.com 1.10,2013-09-13 02:15:00,
2013-09-12 21:30:00,70.4,50.0,30.04,NNW,344,4.0,8.0,48,0.00,,,0.00,weatherlink.com 1.10,2013-09-13 02:30:00,
2013-09-12 21:45:00,69.8,49.0,30.05,NNE,13,8.0,11.0,48,0.00,,,0.00,weatherlink.com 1.10,2013-09-13 02:45:00,
2013-09-12 22:00:00,69.4,49.0,30.05,North,5,4.0,12.0,49,0.00,,,0.00,weatherlink.com 1.10,2013-09-13 03:00:00,
2013-09-12 22:15:00,68.8,49.0,30.05,North,355,5.0,11.0,50,0.00,,,0.00,weatherlink.com 1.10,2013-09-13 03:15:00,
2013-09-12 22:31:00,68.4,49.0,30.06,North,350,6.0,10.0,50,0.00,,,0.00,weatherlink.com 1.10,2013-09-13 03:31:00,
2013-09-12 22:46:00,67.7,49.0,30.06,NNE,24,2.0,7.0,52,0.00,,,0.00,weatherlink.com 1.10,2013-09-13 03:46:00,
2013-09-12 23:01:00,67.0,49.0,30.06,NNW,344,3.0,9.0,53,0.00,,,0.00,weatherlink.com 1.10,2013-09-13 04:01:00,
2013-09-12 23:16:00,66.8,49.0,30.07,North,355,5.0,10.0,54,0.00,,,0.00,weatherlink.com 1.10,2013-09-13 04:16:00,
2013-09-12 23:31:00,66.1,50.0,30.07,North,5,4.0,10.0,56,0.00,,,0.00,weatherlink.com 1.10,2013-09-13 04:31:00,
2013-09-12 23:46:00,65.4,49.0,30.07,NNE,27,6.0,8.0,56,0.00,,,0.00,weatherlink.com 1.10,2013-09-13 04:46:00,